Weather History for Fort Meade, MD

Change the Weather History Date:

Saturday, December 7, 2013

  Actual Average (KBWI) Record (KBWI)
Temperature  
Mean Temperature 36 °F 39 °F  
Max Temperature 42 °F 48 °F 77 °F (1998)
Min Temperature 30 °F 30 °F 6 °F (2002)
Degree Days  
Heating Degree Days 29 26  
Month to date heating degree days 175  
Since 1 July heating degree days 1079  
Cooling Degree Days 0 0  
Month to date cooling degree days 0  
Year to date cooling degree days 1164  
Moisture  
Dew Point 30 °F    
Average Humidity 78    
Maximum Humidity 100    
Minimum Humidity 61    
Precipitation  
Precipitation 0.00 in 0.12 in 2.38 in (2011)
Month to date precipitation 0.83  
Year to date precipitation 39.34  
Snow  
Snow 0.00 in 0.10 in 0.80 in (1969)
Month to date snowfall 0.5  
Since 1 July snowfall 0.9  
Snow Depth -    
Sea Level Pressure  
Sea Level Pressure 30.39 in    
Wind  
Wind Speed 5 mph (NNW)    
Max Wind Speed 14 mph    
Max Gust Speed 17 mph    
Visibility 10 miles    
Events      
T = Trace of Precipitation, MM = Missing Value Source: NWS Daily Summary

Daily Weather History Graph

Daily Weather History Graph

Search for Another Location

Airport:

Trip Planner

Search our weather history database for the weather conditions in past years. The results will help you decide how hot, cold, wet, or windy it might be!

Date:

Astronomy

Dec. 07, 2013 Rise Set
Actual Time 7:12 AM EST 4:44 PM EST
Civil Twilight 6:43 AM EST 5:14 PM EST
Nautical Twilight 6:09 AM EST 5:47 PM EST
Astronomical Twilight 5:37 AM EST 6:19 PM EST
Moon 10:58 AM EST (12/7) 10:21 PM EST (12/7)
Length of Visible Light 10h 30m
Length of Day
9h 31m
Waxing Crescent, 29% of the Moon is Illuminated
Dec 7
Waxing Crescent
Dec 9
First Quarter
Dec 17
Full
Dec 25
Last Quarter
Jan 1
New

Hourly Weather History & Observations

Time (EST) Temp. Windchill Dew Point Humidity Pressure Visibility Wind Dir Wind Speed Gust Speed Precip Events Conditions
12:12 AM 37.4 °F 33.8 °F 33.8 °F 87% 30.17 in 10.0 mi North 4.6 mph - N/A   Overcast
12:30 AM 35.6 °F - 33.8 °F 93% 30.18 in 7.0 mi Calm Calm - N/A   Overcast
12:51 AM 35.6 °F 31.7 °F 35.6 °F 100% 30.17 in 2.5 mi NNW 4.6 mph - N/A   Overcast
1:12 AM 35.6 °F 32.8 °F 33.8 °F 93% 30.17 in 2.5 mi North 3.5 mph - N/A   Overcast
1:30 AM 35.6 °F 31.7 °F 33.8 °F 93% 30.19 in 10.0 mi North 4.6 mph - N/A   Overcast
1:51 AM 35.6 °F 31.7 °F 33.8 °F 93% 30.18 in 10.0 mi North 4.6 mph - N/A   Overcast
2:12 AM 35.6 °F - 33.8 °F 93% 30.20 in 10.0 mi Calm Calm - N/A   Overcast
2:30 AM 37.4 °F 33.8 °F 35.6 °F 93% 30.23 in 10.0 mi NW 4.6 mph - N/A   Overcast
2:51 AM 37.4 °F 32.8 °F 35.6 °F 93% 30.24 in 3.0 mi NW 5.8 mph - N/A   Overcast
3:12 AM 35.6 °F 31.7 °F 33.8 °F 93% 30.24 in 4.0 mi North 4.6 mph 16.1 mph N/A   Scattered Clouds
3:33 AM 35.6 °F 29.2 °F 33.8 °F 93% 30.24 in 7.0 mi North 8.1 mph - N/A   Mostly Cloudy
3:51 AM 35.6 °F 31.7 °F 33.8 °F 93% 30.24 in 10.0 mi North 4.6 mph - N/A   Overcast
4:12 AM 35.6 °F 29.9 °F 33.8 °F 93% 30.25 in 10.0 mi North 6.9 mph - N/A   Overcast
4:33 AM 35.6 °F 30.7 °F 32.0 °F 87% 30.25 in 10.0 mi North 5.8 mph - N/A   Overcast
4:51 AM 35.6 °F 30.7 °F 33.8 °F 93% 30.26 in 10.0 mi North 5.8 mph - N/A   Overcast
5:12 AM 35.6 °F 29.2 °F 32.0 °F 87% 30.28 in 10.0 mi NNW 8.1 mph - N/A   Overcast
5:33 AM 35.6 °F 32.8 °F 32.0 °F 87% 30.29 in 10.0 mi NNW 3.5 mph - N/A   Overcast
5:51 AM 35.6 °F - 32.0 °F 87% 30.29 in 10.0 mi Calm Calm - N/A   Overcast
6:12 AM 35.6 °F 30.7 °F 32.0 °F 87% 30.30 in 10.0 mi North 5.8 mph - N/A   Overcast
6:33 AM 33.8 °F - 32.0 °F 93% 30.32 in 10.0 mi Calm Calm - N/A   Mostly Cloudy
6:51 AM 33.8 °F 30.8 °F 32.0 °F 93% 30.32 in 10.0 mi NW 3.5 mph - N/A   Scattered Clouds
7:12 AM 33.8 °F 29.6 °F 32.0 °F 93% 30.34 in 10.0 mi NW 4.6 mph - N/A   Clear
7:33 AM 33.8 °F 28.6 °F 32.0 °F 93% 30.35 in 10.0 mi NW 5.8 mph - N/A   Clear
7:51 AM 33.8 °F 29.6 °F 32.0 °F 93% 30.36 in 10.0 mi NNW 4.6 mph - N/A   Clear
8:12 AM 33.8 °F 28.6 °F 32.0 °F 93% 30.36 in 10.0 mi North 5.8 mph - N/A   Clear
8:33 AM 35.6 °F 30.7 °F 32.0 °F 87% 30.37 in 10.0 mi North 5.8 mph - N/A   Clear
8:51 AM 35.6 °F 31.7 °F 32.0 °F 87% 30.38 in 10.0 mi North 4.6 mph - N/A   Clear
9:12 AM 37.4 °F 31.4 °F 32.0 °F 81% 30.40 in 10.0 mi NNW 8.1 mph - N/A   Clear
9:33 AM 37.4 °F 32.8 °F 32.0 °F 81% 30.40 in 10.0 mi NNW 5.8 mph - N/A   Clear
9:51 AM 37.4 °F 32.8 °F 32.0 °F 81% 30.40 in 10.0 mi NNW 5.8 mph - N/A   Clear
10:12 AM 41.0 °F 38.0 °F 32.0 °F 70% 30.41 in 10.0 mi NNW 4.6 mph - N/A   Clear
10:33 AM 41.0 °F 36.4 °F 32.0 °F 70% 30.42 in 10.0 mi NW 6.9 mph - N/A   Mostly Cloudy
10:51 AM 39.2 °F 35.0 °F 32.0 °F 75% 30.42 in 10.0 mi NNW 5.8 mph - N/A   Overcast
11:12 AM 41.0 °F 38.0 °F 32.0 °F 70% 30.42 in 10.0 mi NW 4.6 mph - N/A   Mostly Cloudy
11:33 AM 41.0 °F 35.8 °F 32.0 °F 70% 30.41 in 10.0 mi NNW 8.1 mph - N/A   Mostly Cloudy
11:54 AM 42.8 °F 37.5 °F 32.0 °F 66% 30.42 in 10.0 mi NNW 9.2 mph - N/A   Mostly Cloudy
12:12 PM 42.8 °F 37.0 °F 32.0 °F 66% 30.41 in 10.0 mi NW 10.4 mph - N/A   Mostly Cloudy
12:33 PM 42.8 °F 37.5 °F 30.2 °F 61% 30.41 in 10.0 mi NW 9.2 mph 16.1 mph N/A   Mostly Cloudy
12:54 PM 41.0 °F 35.2 °F 30.2 °F 65% 30.41 in 10.0 mi NNW 9.2 mph - N/A   Mostly Cloudy
1:12 PM 41.0 °F 33.5 °F 30.2 °F 65% 30.41 in 10.0 mi NNW 13.8 mph 17.3 mph N/A   Mostly Cloudy
1:33 PM 41.0 °F 36.4 °F 30.2 °F 65% 30.41 in 10.0 mi NNW 6.9 mph - N/A   Mostly Cloudy
1:54 PM 41.0 °F 36.4 °F 30.2 °F 65% 30.40 in 10.0 mi NNW 6.9 mph - N/A   Overcast
2:12 PM 41.0 °F 36.4 °F 30.2 °F 65% 30.41 in 10.0 mi NW 6.9 mph - N/A   Overcast
2:33 PM 39.2 °F 33.0 °F 28.4 °F 65% 30.42 in 10.0 mi North 9.2 mph - N/A   Scattered Clouds
2:54 PM 39.2 °F 35.9 °F 28.4 °F 65% 30.41 in 10.0 mi NW 4.6 mph - N/A   Scattered Clouds
3:12 PM 41.0 °F 37.1 °F 28.4 °F 61% 30.42 in 10.0 mi NW 5.8 mph - N/A   Clear
3:33 PM 39.2 °F 33.0 °F 26.6 °F 61% 30.42 in 10.0 mi NW 9.2 mph - N/A   Clear
3:54 PM 37.4 °F 29.8 °F 26.6 °F 65% 30.43 in 10.0 mi NNW 11.5 mph 16.1 mph N/A   Clear
4:12 PM 37.4 °F 30.8 °F 26.6 °F 65% 30.44 in 10.0 mi NNW 9.2 mph - N/A   Clear
4:33 PM 37.4 °F 32.8 °F 26.6 °F 65% 30.44 in 10.0 mi North 5.8 mph - N/A   Clear
4:54 PM 35.6 °F 32.8 °F 26.6 °F 70% 30.45 in 10.0 mi NW 3.5 mph - N/A   Clear
5:12 PM 33.8 °F 29.6 °F 26.6 °F 75% 30.46 in 10.0 mi NW 4.6 mph - N/A   Clear
5:33 PM 33.8 °F 30.8 °F 26.6 °F 75% 30.47 in 10.0 mi NW 3.5 mph - N/A   Clear
5:54 PM 33.8 °F 28.6 °F 26.6 °F 75% 30.48 in 10.0 mi NW 5.8 mph - N/A   Clear
6:12 PM 33.8 °F 28.6 °F 26.6 °F 75% 30.49 in 10.0 mi NW 5.8 mph - N/A   Clear
6:33 PM 33.8 °F 27.7 °F 26.6 °F 75% 30.50 in 10.0 mi NW 6.9 mph - N/A   Clear
6:54 PM 33.8 °F 27.7 °F 26.6 °F 75% 30.50 in 10.0 mi NW 6.9 mph - N/A   Clear
7:12 PM 33.8 °F 27.7 °F 24.8 °F 70% 30.52 in 10.0 mi NW 6.9 mph - N/A   Clear
7:33 PM 33.8 °F 29.6 °F 24.8 °F 70% 30.52 in 10.0 mi NW 4.6 mph - N/A   Clear
7:54 PM 33.8 °F 27.7 °F 24.8 °F 70% 30.53 in 10.0 mi NW 6.9 mph - N/A   Clear
8:15 PM 32.0 °F 27.5 °F 23.0 °F 69% 30.53 in 10.0 mi NW 4.6 mph - N/A   Clear
8:33 PM 32.0 °F 27.5 °F 23.0 °F 69% 30.53 in 10.0 mi NW 4.6 mph - N/A   Clear
8:54 PM 32.0 °F 27.5 °F 23.0 °F 69% 30.55 in 10.0 mi NW 4.6 mph - N/A   Clear
9:15 PM 32.0 °F 26.4 °F 23.0 °F 69% 30.54 in 10.0 mi NNW 5.8 mph - N/A   Clear
9:33 PM 32.0 °F 26.4 °F 23.0 °F 69% 30.55 in 10.0 mi NW 5.8 mph - N/A   Clear
9:54 PM 32.0 °F 25.6 °F 23.0 °F 69% 30.56 in 10.0 mi NW 6.9 mph - N/A   Clear
10:15 PM 32.0 °F 28.7 °F 23.0 °F 69% 30.56 in 10.0 mi NNW 3.5 mph - N/A   Clear
10:33 PM 32.0 °F 28.7 °F 23.0 °F 69% 30.55 in 10.0 mi NNW 3.5 mph - N/A   Clear
10:54 PM 30.2 °F - 23.0 °F 75% 30.56 in 10.0 mi Calm Calm - N/A   Clear
11:15 PM 30.2 °F 26.7 °F 23.0 °F 75% 30.56 in 10.0 mi NW 3.5 mph - N/A   Clear
11:33 PM 30.2 °F 26.7 °F 23.0 °F 75% 30.56 in 10.0 mi NW 3.5 mph - N/A   Clear
11:54 PM 30.2 °F - 23.0 °F 75% 30.56 in 10.0 mi Calm Calm - N/A   Clear